| time (UTC) | temp F | wind direction | speed MPH | gust MPH | rain 1hr in | rain 24hr in | rain mn in | humidity % | barometer mb |
| 20260505230625 | 62 | 130 | 2.0 | 2.0 | 0.00 | 0.04 | 0.04 | 83 | 1007.4 |
| 20260505230121 | 62 | 149 | 0.0 | 2.0 | 0.00 | 0.04 | 0.04 | 83 | 1007.4 |
| 20260505225617 | 61 | 151 | 2.0 | 2.0 | 0.00 | 0.04 | 0.04 | 86 | 1007.4 |
| 20260505225114 | 61 | 124 | 2.0 | 2.0 | 0.00 | 0.04 | 0.04 | 87 | 1007.5 |
| 20260505224610 | 62 | 0 | 1.0 | 2.0 | 0.00 | 0.04 | 0.04 | 87 | 1007.7 |
| 20260505224108 | 62 | 231 | 0.0 | 3.0 | 0.00 | 0.04 | 0.04 | 84 | 1007.6 |
| 20260505223605 | 62 | 255 | 2.0 | 5.0 | 0.02 | 0.04 | 0.04 | 83 | 1007.4 |
| 20260505223101 | 62 | 254 | 1.0 | 5.0 | 0.05 | 0.04 | 0.04 | 83 | 1007.4 |
| 20260505222558 | 63 | 114 | 1.0 | 8.0 | 0.02 | 0.04 | 0.04 | 81 | 1007.3 |
| 20260505222054 | 64 | 132 | 2.0 | 5.0 | 0.00 | 0.03 | 0.03 | 76 | 1007.3 |
| 20260505221551 | 64 | 143 | 3.0 | 6.0 | 0.00 | 0.03 | 0.03 | 75 | 1007.6 |
| 20260505221047 | 64 | 176 | 4.0 | 6.0 | 0.00 | 0.03 | 0.03 | 77 | 1007.5 |
| 20260505220545 | 65 | 121 | 2.0 | 4.0 | 0.00 | 0.03 | 0.03 | 75 | 1006.7 |
| 20260505220043 | 65 | 146 | 0.0 | 2.0 | 0.00 | 0.03 | 0.03 | 75 | 1006.6 |
| 20260505215540 | 65 | 108 | 0.0 | 4.0 | 0.00 | 0.03 | 0.03 | 75 | 1007.1 |
| 20260505215038 | 65 | 160 | 2.0 | 3.0 | 0.00 | 0.03 | 0.03 | 74 | 1006.9 |
| 20260505214536 | 66 | 155 | 0.0 | 2.0 | 0.00 | 0.03 | 0.03 | 72 | 1006.7 |
| 20260505214032 | 66 | 256 | 3.0 | 5.0 | 0.00 | 0.03 | 0.03 | 72 | 1006.9 |
| 20260505213530 | 66 | 105 | 0.0 | 5.0 | 0.00 | 0.03 | 0.03 | 70 | 1006.4 |
| 20260505213026 | 66 | 143 | 2.0 | 3.0 | 0.00 | 0.03 | 0.03 | 72 | 1006.5 |
| 20260505212523 | 67 | 186 | 2.0 | 5.0 | 0.00 | 0.03 | 0.03 | 72 | 1006.6 |
| 20260505212020 | 67 | 254 | 2.0 | 3.0 | 0.00 | 0.03 | 0.03 | 71 | 1006.5 |
| 20260505211517 | 66 | 134 | 2.0 | 4.0 | 0.00 | 0.03 | 0.03 | 73 | 1006.4 |
| 20260505211014 | 66 | 230 | 2.0 | 5.0 | 0.00 | 0.03 | 0.03 | 76 | 1006.4 |
| 20260505210510 | 66 | 229 | 2.0 | 4.0 | 0.00 | 0.03 | 0.03 | 74 | 1006.4 |
| 20260505210008 | 64 | 169 | 1.0 | 6.0 | 0.00 | 0.03 | 0.03 | 74 | 1006.4 |
| 20260505205506 | 64 | 261 | 3.0 | 5.0 | 0.00 | 0.03 | 0.03 | 78 | 1006.6 |
| 20260505205003 | 64 | 132 | 5.0 | 7.0 | 0.00 | 0.03 | 0.03 | 79 | 1006.7 |
| 20260505204500 | 63 | 232 | 2.0 | 4.0 | 0.00 | 0.03 | 0.03 | 80 | 1006.5 |
| 20260505203957 | 62 | 104 | 2.0 | 4.0 | 0.00 | 0.03 | 0.03 | 84 | 1006.5 |
| 20260505203453 | 62 | 86 | 2.0 | 3.0 | 0.00 | 0.03 | 0.03 | 85 | 1006.9 |
| 20260505202950 | 61 | 110 | 1.0 | 2.0 | 0.00 | 0.03 | 0.03 | 90 | 1006.7 |
| 20260505202447 | 60 | 355 | 2.0 | 2.0 | 0.00 | 0.03 | 0.03 | 91 | 1007.0 |
| 20260505201943 | 59 | 309 | 0.0 | 2.0 | 0.00 | 0.03 | 0.03 | 91 | 1007.1 |
| 20260505201440 | 59 | 22 | 3.0 | 5.0 | 0.00 | 0.03 | 0.03 | 91 | 1006.9 |
| 20260505200938 | 60 | 313 | 1.0 | 5.0 | 0.00 | 0.03 | 0.03 | 90 | 1007.0 |
| 20260505200435 | 59 | 315 | 4.0 | 11.0 | 0.02 | 0.03 | 0.03 | 89 | 1007.2 |
| 20260505195930 | 59 | 326 | 3.0 | 8.0 | 0.02 | 0.03 | 0.03 | 90 | 1007.5 |
| 20260505195428 | 59 | 328 | 3.0 | 10.0 | 0.00 | 0.03 | 0.03 | 88 | 1007.5 |
| 20260505194925 | 59 | 319 | 3.0 | 14.0 | 0.09 | 0.03 | 0.03 | 89 | 1007.9 |
| 20260505194423 | 60 | 242 | 11.0 | 18.0 | 0.09 | 0.03 | 0.03 | 87 | 1008.2 |
| 20260505193922 | 64 | 307 | 10.0 | 29.0 | 0.00 | 0.01 | 0.01 | 76 | 1007.5 |
| 20260505193420 | 73 | 234 | 11.0 | 11.0 | 0.00 | 0.01 | 0.01 | 41 | 1006.0 |
| 20260505192918 | 74 | 218 | 2.0 | 16.0 | 0.00 | 0.01 | 0.01 | 38 | 1005.5 |
| 20260505192416 | 74 | 205 | 9.0 | 26.0 | 0.00 | 0.01 | 0.01 | 37 | 1005.3 |
| 20260505191913 | 74 | 208 | 14.0 | 20.0 | 0.00 | 0.01 | 0.01 | 37 | 1005.2 |
| 20260505191412 | 75 | 167 | 3.0 | 21.0 | 0.00 | 0.01 | 0.01 | 37 | 1004.9 |
| 20260505190908 | 77 | 210 | 2.0 | 12.0 | 0.00 | 0.01 | 0.01 | 38 | 1005.2 |
| 20260505190404 | 77 | 214 | 3.0 | 11.0 | 0.00 | 0.01 | 0.01 | 39 | 1005.1 |
| 20260505185859 | 76 | 161 | 3.0 | 13.0 | 0.00 | 0.01 | 0.01 | 40 | 1005.2 |
| 20260505185356 | 75 | 223 | 3.0 | 15.0 | 0.00 | 0.01 | 0.01 | 45 | 1005.3 |
| 20260505184852 | 75 | 232 | 2.0 | 12.0 | 0.00 | 0.01 | 0.01 | 45 | 1005.1 |
| 20260505184349 | 75 | 162 | 3.0 | 13.0 | 0.00 | 0.01 | 0.01 | 45 | 1005.4 |
| 20260505183846 | 75 | 221 | 7.0 | 21.0 | 0.00 | 0.01 | 0.01 | 46 | 1005.4 |
| 20260505183343 | 75 | 180 | 4.0 | 16.0 | 0.00 | 0.01 | 0.01 | 45 | 1005.4 |
| 20260505182840 | 75 | 210 | 4.0 | 15.0 | 0.00 | 0.01 | 0.01 | 45 | 1005.7 |
| 20260505182337 | 74 | 234 | 5.0 | 19.0 | 0.00 | 0.01 | 0.01 | 45 | 1005.8 |
| 20260505181834 | 75 | 227 | 7.0 | 15.0 | 0.00 | 0.01 | 0.01 | 45 | 1005.9 |
| 20260505181331 | 75 | 159 | 6.0 | 15.0 | 0.00 | 0.01 | 0.01 | 46 | 1006.1 |
| 20260505180827 | 74 | 147 | 11.0 | 15.0 | 0.00 | 0.01 | 0.01 | 46 | 1006.1 |
| 20260505180324 | 75 | 167 | 5.0 | 11.0 | 0.00 | 0.01 | 0.01 | 44 | 1006.2 |
| 20260505175820 | 75 | 235 | 7.0 | 11.0 | 0.00 | 0.01 | 0.01 | 45 | 1006.2 |
| 20260505175317 | 75 | 244 | 12.0 | 14.0 | 0.00 | 0.01 | 0.01 | 46 | 1006.5 |
| 20260505174813 | 75 | 257 | 8.0 | 11.0 | 0.00 | 0.01 | 0.01 | 46 | 1006.3 |
| 20260505174311 | 74 | 252 | 9.0 | 9.0 | 0.00 | 0.01 | 0.01 | 47 | 1006.4 |
| 20260505173806 | 74 | 165 | 2.0 | 13.0 | 0.00 | 0.01 | 0.01 | 47 | 1006.4 |
| 20260505173303 | 73 | 236 | 9.0 | 13.0 | 0.00 | 0.01 | 0.01 | 47 | 1006.5 |
| 20260505172800 | 73 | 167 | 0.0 | 15.0 | 0.00 | 0.01 | 0.01 | 48 | 1006.4 |
| 20260505172257 | 73 | 127 | 5.0 | 16.0 | 0.00 | 0.01 | 0.01 | 46 | 1006.4 |
| 20260505171752 | 73 | 190 | 2.0 | 7.0 | 0.00 | 0.01 | 0.01 | 48 | 1006.6 |
| 20260505171249 | 73 | 241 | 11.0 | 12.0 | 0.00 | 0.01 | 0.01 | 48 | 1006.5 |
| 20260505170746 | 73 | 211 | 3.0 | 11.0 | 0.00 | 0.01 | 0.01 | 48 | 1006.4 |
| 20260505170243 | 73 | 180 | 5.0 | 16.0 | 0.00 | 0.01 | 0.01 | 47 | 1006.3 |
| 20260505165738 | 73 | 89 | 2.0 | 16.0 | 0.00 | 0.01 | 0.01 | 47 | 1006.1 |
| 20260505165234 | 74 | 211 | 7.0 | 13.0 | 0.00 | 0.01 | 0.01 | 45 | 1005.9 |
| 20260505164730 | 73 | 193 | 4.0 | 14.0 | 0.00 | 0.01 | 0.01 | 46 | 1006.2 |
| 20260505164227 | 73 | 254 | 8.0 | 17.0 | 0.00 | 0.01 | 0.01 | 45 | 1006.3 |
| 20260505163725 | 73 | 262 | 2.0 | 7.0 | 0.00 | 0.01 | 0.01 | 46 | 1006.1 |
| 20260505163224 | 73 | 241 | 9.0 | 13.0 | 0.00 | 0.01 | 0.01 | 45 | 1006.4 |
| 20260505162721 | 73 | 195 | 6.0 | 11.0 | 0.00 | 0.01 | 0.01 | 45 | 1006.4 |
| 20260505162218 | 73 | 225 | 9.0 | 14.0 | 0.00 | 0.01 | 0.01 | 45 | 1006.6 |
| 20260505161715 | 73 | 265 | 5.0 | 9.0 | 0.00 | 0.01 | 0.01 | 46 | 1006.6 |
| 20260505161212 | 73 | 251 | 7.0 | 10.0 | 0.00 | 0.01 | 0.01 | 45 | 1006.5 |
| 20260505160710 | 74 | 161 | 4.0 | 8.0 | 0.00 | 0.01 | 0.01 | 45 | 1006.6 |
| 20260505160207 | 74 | 246 | 4.0 | 14.0 | 0.00 | 0.01 | 0.01 | 45 | 1006.7 |
| 20260505153146 | 73 | 186 | 4.0 | 19.0 | 0.00 | 0.01 | 0.01 | 46 | 1006.9 |
| 20260505152643 | 74 | 148 | 5.0 | 16.0 | 0.00 | 0.01 | 0.01 | 45 | 1006.9 |
| 20260505152138 | 73 | 195 | 8.0 | 23.0 | 0.00 | 0.01 | 0.01 | 47 | 1006.9 |
| 20260505151634 | 73 | 189 | 10.0 | 22.0 | 0.00 | 0.01 | 0.01 | 46 | 1006.7 |
| 20260505151132 | 73 | 226 | 2.0 | 14.0 | 0.00 | 0.01 | 0.01 | 47 | 1006.6 |
| 20260505150627 | 73 | 177 | 5.0 | 17.0 | 0.00 | 0.01 | 0.01 | 46 | 1006.7 |
| 20260505150125 | 72 | 183 | 9.0 | 16.0 | 0.00 | 0.01 | 0.01 | 48 | 1006.7 |
| 20260505140553 | 69 | 243 | 9.0 | 13.0 | 0.00 | 0.01 | 0.01 | 52 | 1007.1 |
| 20260505125007 | 62 | 161 | 3.0 | 9.0 | 0.00 | 0.01 | 0.01 | 65 | 1007.9 |
| 20260505124503 | 62 | 111 | 10.0 | 11.0 | 0.00 | 0.01 | 0.01 | 66 | 1007.9 |
| 20260505124000 | 62 | 129 | 2.0 | 11.0 | 0.00 | 0.01 | 0.01 | 68 | 1008.0 |
| 20260505123456 | 61 | 135 | 2.0 | 6.0 | 0.00 | 0.01 | 0.01 | 69 | 1007.8 |
| 20260505122952 | 61 | 233 | 0.0 | 6.0 | 0.00 | 0.01 | 0.01 | 69 | 1007.9 |
| 20260505122450 | 60 | 188 | 2.0 | 7.0 | 0.00 | 0.01 | 0.01 | 72 | 1007.8 |
| 20260505121946 | 60 | 244 | 5.0 | 8.0 | 0.00 | 0.01 | 0.01 | 71 | 1007.6 |
| 20260505121444 | 60 | 149 | 3.0 | 7.0 | 0.00 | 0.01 | 0.01 | 74 | 1008.0 |
| 20260505120939 | 59 | 225 | 3.0 | 5.0 | 0.00 | 0.01 | 0.01 | 73 | 1007.7 |
| 20260505120436 | 59 | 134 | 3.0 | 7.0 | 0.00 | 0.01 | 0.01 | 73 | 1007.7 |
| 20260505115935 | 59 | 150 | 3.0 | 5.0 | 0.00 | 0.01 | 0.01 | 74 | 1007.6 |
| 20260505115432 | 59 | 175 | 2.0 | 7.0 | 0.00 | 0.01 | 0.01 | 75 | 1007.5 |
| 20260505114930 | 59 | 97 | 1.0 | 6.0 | 0.00 | 0.01 | 0.01 | 74 | 1007.3 |
| 20260505114426 | 59 | 119 | 0.0 | 9.0 | 0.00 | 0.01 | 0.01 | 73 | 1007.4 |
| 20260505113922 | 59 | 179 | 5.0 | 16.0 | 0.00 | 0.01 | 0.01 | 73 | 1007.7 |
| 20260505113419 | 57 | 221 | 5.0 | 9.0 | 0.00 | 0.01 | 0.01 | 76 | 1007.4 |
| 20260505112915 | 58 | 176 | 3.0 | 8.0 | 0.05 | 0.01 | 0.01 | 75 | 1007.5 |
| 20260505112413 | 57 | 299 | 1.0 | 10.0 | 0.07 | 0.01 | 0.01 | 75 | 1007.7 |
| 20260505111908 | 59 | 225 | 5.0 | 9.0 | 0.02 | 0.00 | 0.00 | 70 | 1008.0 |
| 20260505111403 | 60 | 249 | 3.0 | 6.0 | 0.00 | 0.00 | 0.00 | 66 | 1007.6 |
| 20260505110859 | 59 | 125 | 3.0 | 4.0 | 0.00 | 0.00 | 0.00 | 66 | 1007.9 |
| 20260505110357 | 59 | 134 | 3.0 | 4.0 | 0.00 | 0.00 | 0.00 | 66 | 1008.0 |
| 20260505101827 | 59 | 41 | 1.0 | 6.0 | 0.00 | 0.00 | 0.00 | 64 | 1007.5 |
| 20260505101322 | 58 | 189 | 3.0 | 7.0 | 0.00 | 0.00 | 0.00 | 65 | 1007.6 |
| 20260505100818 | 57 | 97 | 0.0 | 3.0 | 0.00 | 0.00 | 0.00 | 66 | 1007.5 |
| 20260505100315 | 57 | 131 | 2.0 | 3.0 | 0.00 | 0.00 | 0.00 | 67 | 1007.3 |
| 20260505095811 | 57 | 142 | 0.0 | 2.0 | 0.00 | 0.00 | 0.00 | 67 | 1007.2 |
| 20260505095309 | 58 | 137 | 2.0 | 4.0 | 0.00 | 0.00 | 0.00 | 66 | 1007.1 |
| 20260505094804 | 57 | 115 | 2.0 | 3.0 | 0.00 | 0.00 | 0.00 | 66 | 1007.3 |
| 20260505094301 | 58 | 165 | 1.0 | 3.0 | 0.00 | 0.00 | 0.00 | 65 | 1007.1 |
| 20260505093757 | 58 | 120 | 3.0 | 4.0 | 0.00 | 0.00 | 0.00 | 65 | 1006.9 |
| 20260505093255 | 58 | 139 | 2.0 | 3.0 | 0.00 | 0.00 | 0.00 | 64 | 1007.1 |
| 20260505092751 | 58 | 121 | 2.0 | 5.0 | 0.00 | 0.00 | 0.00 | 64 | 1007.0 |
| 20260505092250 | 58 | 193 | 2.0 | 4.0 | 0.00 | 0.00 | 0.00 | 63 | 1006.9 |
| 20260505091747 | 58 | 138 | 3.0 | 4.0 | 0.00 | 0.00 | 0.00 | 64 | 1006.7 |
| 20260505091245 | 58 | 115 | 3.0 | 5.0 | 0.00 | 0.00 | 0.00 | 63 | 1006.7 |
| 20260505090742 | 58 | 129 | 2.0 | 3.0 | 0.00 | 0.00 | 0.00 | 63 | 1006.5 |
| 20260505090240 | 58 | 143 | 2.0 | 4.0 | 0.00 | 0.00 | 0.00 | 63 | 1006.6 |
| 20260505085738 | 58 | 130 | 3.0 | 6.0 | 0.00 | 0.00 | 0.00 | 63 | 1006.7 |
| 20260505085236 | 58 | 128 | 2.0 | 9.0 | 0.00 | 0.00 | 0.00 | 63 | 1006.7 |
| 20260505084732 | 59 | 86 | 1.0 | 6.0 | 0.00 | 0.00 | 0.00 | 62 | 1006.9 |
| 20260505084232 | 58 | 192 | 4.0 | 5.0 | 0.00 | 0.00 | 0.00 | 62 | 1006.5 |
| 20260505083728 | 58 | 115 | 2.0 | 6.0 | 0.00 | 0.00 | 0.00 | 62 | 1006.4 |
| 20260505083225 | 58 | 159 | 2.0 | 4.0 | 0.00 | 0.00 | 0.00 | 63 | 1006.5 |
| 20260505082721 | 58 | 135 | 3.0 | 7.0 | 0.00 | 0.00 | 0.00 | 62 | 1006.6 |
| 20260505082219 | 59 | 124 | 2.0 | 6.0 | 0.00 | 0.00 | 0.00 | 61 | 1006.6 |
| 20260505081714 | 58 | 149 | 5.0 | 6.0 | 0.00 | 0.00 | 0.00 | 61 | 1006.5 |
| 20260505081212 | 59 | 126 | 5.0 | 5.0 | 0.00 | 0.00 | 0.00 | 61 | 1006.7 |
| 20260505080709 | 59 | 158 | 4.0 | 5.0 | 0.00 | 0.00 | 0.00 | 61 | 1006.5 |
| 20260505080204 | 59 | 145 | 3.0 | 3.0 | 0.00 | 0.00 | 0.00 | 61 | 1006.7 |
| 20260505075700 | 59 | 152 | 0.0 | 3.0 | 0.00 | 0.00 | 0.00 | 60 | 1006.7 |
| 20260505075157 | 59 | 126 | 3.0 | 5.0 | 0.00 | 0.00 | 0.00 | 60 | 1007.0 |
| 20260505074654 | 59 | 127 | 4.0 | 6.0 | 0.00 | 0.00 | 0.00 | 60 | 1006.7 |
| 20260505074151 | 60 | 139 | 2.0 | 6.0 | 0.00 | 0.00 | 0.00 | 59 | 1006.9 |
| 20260505073649 | 60 | 132 | 2.0 | 3.0 | 0.00 | 0.00 | 0.00 | 60 | 1006.7 |
| 20260505073147 | 60 | 141 | 2.0 | 5.0 | 0.00 | 0.00 | 0.00 | 59 | 1006.7 |
| 20260505072642 | 60 | 140 | 2.0 | 4.0 | 0.00 | 0.00 | 0.00 | 59 | 1006.7 |
| 20260505072139 | 59 | 177 | 2.0 | 3.0 | 0.00 | 0.00 | 0.00 | 59 | 1006.7 |
| 20260505071634 | 60 | 89 | 2.0 | 4.0 | 0.00 | 0.00 | 0.00 | 58 | 1006.7 |
| 20260505071133 | 60 | 124 | 0.0 | 5.0 | 0.00 | 0.00 | 0.00 | 57 | 1007.0 |
| 20260505070629 | 59 | 127 | 2.0 | 3.0 | 0.00 | 0.00 | 0.00 | 58 | 1006.7 |
| 20260505070126 | 60 | 141 | 2.0 | 4.0 | 0.00 | 0.00 | 0.00 | 57 | 1006.9 |
| 20260505065622 | 60 | 186 | 2.0 | 5.0 | 0.00 | 0.00 | 0.00 | 57 | 1006.6 |
| 20260505065118 | 60 | 159 | 4.0 | 6.0 | 0.00 | 0.00 | 0.00 | 57 | 1006.7 |
| 20260505064615 | 60 | 221 | 3.0 | 4.0 | 0.00 | 0.00 | 0.00 | 57 | 1007.0 |
| 20260505064114 | 60 | 159 | 2.0 | 6.0 | 0.00 | 0.00 | 0.00 | 57 | 1007.0 |
| 20260505063611 | 60 | 148 | 2.0 | 9.0 | 0.00 | 0.00 | 0.00 | 57 | 1007.0 |
| 20260505063106 | 60 | 141 | 2.0 | 3.0 | 0.00 | 0.00 | 0.00 | 58 | 1007.2 |
| 20260505062603 | 60 | 127 | 3.0 | 5.0 | 0.00 | 0.00 | 0.00 | 57 | 1007.1 |
| 20260505062101 | 60 | 110 | 0.0 | 8.0 | 0.00 | 0.00 | 0.00 | 57 | 1007.0 |
| 20260505061558 | 60 | 170 | 2.0 | 10.0 | 0.00 | 0.00 | 0.00 | 55 | 1006.9 |
| 20260505061056 | 60 | 140 | 2.0 | 7.0 | 0.00 | 0.00 | 0.00 | 56 | 1006.9 |
| 20260505060553 | 60 | 135 | 1.0 | 7.0 | 0.00 | 0.00 | 0.00 | 57 | 1007.0 |
| 20260505060050 | 60 | 101 | 2.0 | 13.0 | 0.00 | 0.00 | 0.00 | 55 | 1006.7 |
| 20260505055545 | 60 | 125 | 2.0 | 8.0 | 0.00 | 0.00 | 0.00 | 55 | 1007.0 |
| 20260505055042 | 60 | 176 | 2.0 | 5.0 | 0.00 | 0.00 | 0.00 | 56 | 1007.0 |
| 20260505054539 | 60 | 155 | 1.0 | 8.0 | 0.00 | 0.00 | 0.00 | 55 | 1006.9 |
| 20260505054037 | 60 | 151 | 5.0 | 9.0 | 0.00 | 0.00 | 0.00 | 55 | 1007.0 |
| 20260505053534 | 60 | 128 | 3.0 | 7.0 | 0.00 | 0.00 | 0.00 | 56 | 1007.0 |
| 20260505053031 | 60 | 132 | 4.0 | 5.0 | 0.00 | 0.00 | 0.00 | 55 | 1007.1 |
| 20260505052528 | 60 | 130 | 2.0 | 4.0 | 0.00 | 0.00 | 0.00 | 55 | 1007.0 |
| 20260505052025 | 60 | 119 | 2.0 | 5.0 | 0.00 | 0.00 | 0.00 | 55 | 1007.0 |
| 20260505051522 | 60 | 135 | 3.0 | 6.0 | 0.00 | 0.00 | 0.00 | 54 | 1007.0 |
| 20260505051020 | 60 | 170 | 2.0 | 8.0 | 0.00 | 0.00 | 0.00 | 54 | 1007.3 |
| 20260505050518 | 60 | 253 | 1.0 | 5.0 | 0.00 | 0.00 | 0.00 | 54 | 1007.2 |
| 20260505041445 | 60 | 148 | 2.0 | 5.0 | 0.00 | 0.00 | 0.00 | 54 | 1007.2 |
| 20260505040943 | 61 | 125 | 3.0 | 5.0 | 0.00 | 0.00 | 0.00 | 53 | 1006.9 |
| 20260505040440 | 61 | 155 | 2.0 | 7.0 | 0.00 | 0.00 | 0.00 | 52 | 1006.9 |
| 20260505035937 | 61 | 118 | 1.0 | 8.0 | 0.00 | 0.00 | 0.00 | 52 | 1007.0 |
| 20260505035433 | 61 | 110 | 2.0 | 11.0 | 0.00 | 0.00 | 0.00 | 52 | 1007.0 |
| 20260505034930 | 61 | 129 | 5.0 | 8.0 | 0.00 | 0.00 | 0.00 | 52 | 1006.9 |
| 20260505034426 | 61 | 125 | 2.0 | 4.0 | 0.00 | 0.00 | 0.00 | 52 | 1007.0 |
| 20260505033924 | 61 | 212 | 3.0 | 9.0 | 0.00 | 0.00 | 0.00 | 51 | 1006.9 |
| 20260505033420 | 61 | 356 | 4.0 | 7.0 | 0.00 | 0.00 | 0.00 | 52 | 1006.7 |
| 20260505032919 | 61 | 164 | 4.0 | 5.0 | 0.00 | 0.00 | 0.00 | 52 | 1006.9 |
| 20260505032415 | 61 | 246 | 6.0 | 9.0 | 0.00 | 0.00 | 0.00 | 51 | 1006.9 |
| 20260505031912 | 61 | 218 | 2.0 | 7.0 | 0.00 | 0.00 | 0.00 | 52 | 1006.7 |
| 20260505031409 | 61 | 210 | 1.0 | 6.0 | 0.00 | 0.00 | 0.00 | 52 | 1006.6 |
| 20260505030906 | 61 | 175 | 1.0 | 5.0 | 0.00 | 0.00 | 0.00 | 51 | 1006.6 |
| 20260505030402 | 62 | 133 | 1.0 | 12.0 | 0.00 | 0.00 | 0.00 | 51 | 1006.7 |
| 20260505025857 | 62 | 206 | 5.0 | 11.0 | 0.00 | 0.00 | 0.00 | 50 | 1006.7 |
| 20260505025355 | 62 | 206 | 3.0 | 12.0 | 0.00 | 0.00 | 0.00 | 50 | 1007.0 |
| 20260505024854 | 62 | 148 | 3.0 | 5.0 | 0.00 | 0.00 | 0.00 | 50 | 1006.9 |
| 20260505024351 | 62 | 225 | 6.0 | 9.0 | 0.00 | 0.00 | 0.00 | 49 | 1007.0 |
| 20260505023847 | 62 | 180 | 3.0 | 11.0 | 0.00 | 0.00 | 0.00 | 48 | 1006.9 |
| 20260505023339 | 62 | 178 | 3.0 | 7.0 | 0.00 | 0.00 | 0.00 | 49 | 1007.0 |
| 20260505022836 | 62 | 257 | 3.0 | 5.0 | 0.00 | 0.00 | 0.00 | 48 | 1007.1 |
| 20260505022333 | 62 | 169 | 3.0 | 6.0 | 0.00 | 0.00 | 0.00 | 47 | 1007.3 |
| 20260505021831 | 62 | 327 | 1.0 | 13.0 | 0.00 | 0.00 | 0.00 | 47 | 1007.2 |
| 20260505021327 | 63 | 149 | 0.0 | 9.0 | 0.00 | 0.00 | 0.00 | 48 | 1007.1 |
| 20260505020823 | 62 | 161 | 2.0 | 7.0 | 0.00 | 0.00 | 0.00 | 47 | 1007.0 |
| 20260505020318 | 62 | 58 | 1.0 | 8.0 | 0.00 | 0.00 | 0.00 | 48 | 1007.1 |
| 20260505015815 | 63 | 80 | 2.0 | 7.0 | 0.00 | 0.00 | 0.00 | 47 | 1007.2 |
| 20260505015313 | 63 | 257 | 0.0 | 6.0 | 0.00 | 0.00 | 0.00 | 47 | 1007.0 |
| 20260505014810 | 62 | 40 | 2.0 | 6.0 | 0.00 | 0.00 | 0.00 | 48 | 1007.1 |
| 20260505014307 | 62 | 153 | 1.0 | 5.0 | 0.00 | 0.00 | 0.00 | 48 | 1007.0 |
| 20260505013803 | 63 | 177 | 3.0 | 8.0 | 0.00 | 0.00 | 0.00 | 47 | 1007.0 |
| 20260505013301 | 62 | 181 | 1.0 | 4.0 | 0.00 | 0.00 | 0.00 | 47 | 1006.9 |
| 20260505012759 | 63 | 132 | 1.0 | 5.0 | 0.00 | 0.00 | 0.00 | 47 | 1006.6 |
| 20260505012256 | 63 | 305 | 1.0 | 8.0 | 0.00 | 0.00 | 0.00 | 46 | 1006.7 |
| 20260505011752 | 63 | 199 | 1.0 | 7.0 | 0.00 | 0.00 | 0.00 | 46 | 1006.7 |
| 20260505011249 | 63 | 124 | 3.0 | 5.0 | 0.00 | 0.00 | 0.00 | 45 | 1006.9 |
| 20260505010744 | 64 | 138 | 3.0 | 7.0 | 0.00 | 0.00 | 0.00 | 45 | 1006.6 |
| 20260505010241 | 63 | 76 | 2.0 | 6.0 | 0.00 | 0.00 | 0.00 | 45 | 1006.6 |
| 20260505005737 | 64 | 182 | 2.0 | 9.0 | 0.00 | 0.00 | 0.00 | 45 | 1006.5 |
| 20260505005234 | 64 | 134 | 1.0 | 5.0 | 0.00 | 0.00 | 0.00 | 46 | 1006.5 |
| 20260505004732 | 64 | 146 | 8.0 | 11.0 | 0.00 | 0.00 | 0.00 | 44 | 1006.3 |
| 20260505004228 | 64 | 139 | 1.0 | 8.0 | 0.00 | 0.00 | 0.00 | 45 | 1006.3 |
| 20260505003725 | 64 | 142 | 3.0 | 12.0 | 0.00 | 0.00 | 0.00 | 45 | 1006.4 |
| 20260505003223 | 65 | 138 | 4.0 | 12.0 | 0.00 | 0.00 | 0.00 | 44 | 1006.5 |
| 20260505002719 | 64 | 179 | 1.0 | 6.0 | 0.00 | 0.00 | 0.00 | 46 | 1006.4 |
| 20260505002217 | 64 | 134 | 1.0 | 2.0 | 0.00 | 0.00 | 0.00 | 45 | 1006.2 |
| 20260505001714 | 64 | 187 | 3.0 | 9.0 | 0.00 | 0.00 | 0.00 | 44 | 1006.3 |
| 20260505001212 | 65 | 225 | 2.0 | 5.0 | 0.00 | 0.00 | 0.00 | 43 | 1006.1 |
| 20260505000708 | 64 | 123 | 1.0 | 5.0 | 0.00 | 0.00 | 0.00 | 44 | 1006.3 |
| 20260505000206 | 65 | 156 | 2.0 | 4.0 | 0.00 | 0.00 | 0.00 | 43 | 1006.2 |
| 20260504235702 | 65 | 138 | 1.0 | 8.0 | 0.00 | 0.00 | 0.00 | 43 | 1006.1 |
| 20260504235158 | 66 | 140 | 3.0 | 6.0 | 0.00 | 0.00 | 0.00 | 42 | 1006.1 |
| 20260504234656 | 66 | 174 | 3.0 | 7.0 | 0.00 | 0.00 | 0.00 | 42 | 1006.1 |
| 20260504234153 | 66 | 138 | 3.0 | 7.0 | 0.00 | 0.00 | 0.00 | 40 | 1006.1 |
| 20260504233649 | 67 | 84 | 2.0 | 5.0 | 0.00 | 0.00 | 0.00 | 40 | 1006.0 |
| 20260504233145 | 67 | 194 | 3.0 | 9.0 | 0.00 | 0.00 | 0.00 | 39 | 1005.8 |
| 20260504232643 | 67 | 134 | 3.0 | 8.0 | 0.00 | 0.00 | 0.00 | 40 | 1005.9 |
| 20260504232140 | 68 | 138 | 3.0 | 11.0 | 0.00 | 0.00 | 0.00 | 38 | 1005.7 |
| 20260504231636 | 68 | 101 | 3.0 | 5.0 | 0.00 | 0.00 | 0.00 | 38 | 1005.9 |
| 20260504231133 | 69 | 142 | 2.0 | 9.0 | 0.00 | 0.00 | 0.00 | 38 | 1005.8 |